User: anonymous   Login
Location: Unspecified
(0.0000°N, 0.0000°E)
Time: 13:40:03
(UTC+00:00)
Language:

SRMSAT - Orbit

View from above orbital plane
View from above orbital plane
View from above satellite
View from above satellite

Ground track
Ground track

The orbit data is extracted from the following two-line orbital elements,

1 37841U 11058D   18174.03726942  .00000284  00000-0  10967-4 0  9993
2 37841  19.9733  51.0973 0011869 194.6705 307.4665 14.10608512345707
Epoch (UTC): 23 June 2018 00:53:40
Eccentricity: 0.0011869
inclination: 19.9733°
perigee height: 849 km
apogee height: 866 km
right ascension of ascending node: 51.0973°
argument of perigee: 194.6705°
revolutions per day: 14.10608512
mean anomaly at epoch: 307.4665°
orbit number at epoch: 34570

The dashed part of the orbit path shows where the satellite is in the earth's shadow,  

DLR